Location: Eboldshausen
(51.7766°N, 10.0050°E)
Time: 06:35:46
(UTC+00:00)

Cosmos 2344 - Pass Details

Date: 15 November 2025
Orbit: 1197 x 3045 km, 63.3° (Epoch: 12 December)

Event Time Altitude Azimuth Distance (km) Brightness Sun altitude
Rises 18:53:15 0° 314° (NW) 4,194 7.1 -31.3°
Reaches altitude 10° 18:55:46 10° 313° (NW) 3,306 6.4 -31.7°
Maximum altitude 19:03:36 75° 230° (SW) 1,573 3.9 -32.8°
Enters shadow 19:06:06 53° 162° (SSE) 1,922 4.2 -33.2°
